This is the latest recevied weather packets stored in our database for station/object SQ5LTL-2. If no packets are shown the sender has not sent any weather packets the latest 10 day(s).
| Time | Temp. | Humidity | Pressure | Rain* | Wind** | Luminosity | Snow |
|---|---|---|---|---|---|---|---|
| 1777725623 | 22.22° C | 36% | 1023.8 hPa | 0 mm | - | 457 W/m² | - |
| 1777725322 | 21.67° C | 37% | 1023.9 hPa | 0 mm | - | 467 W/m² | - |
| 1777725020 | 22.22° C | 36% | 1023.9 hPa | 0 mm | - | 477 W/m² | - |
| 1777724720 | 22.22° C | 37% | 1023.9 hPa | 0 mm | - | 483 W/m² | - |
| 1777724417 | 22.22° C | 36% | 1024 hPa | 0 mm | - | 491 W/m² | - |
| 1777724115 | 22.78° C | 37% | 1024.1 hPa | 0 mm | - | 498 W/m² | - |
| 1777723834 | 22.22° C | 36% | 1024.1 hPa | 0 mm | - | 504 W/m² | - |
| 1777723534 | 22.22° C | 36% | 1024.1 hPa | 0 mm | - | 510 W/m² | - |
| 1777723232 | 22.22° C | 37% | 1024.2 hPa | 0 mm | - | 510 W/m² | - |
| 1777722930 | 22.22° C | 37% | 1024.2 hPa | 0 mm | - | 526 W/m² | - |
| 1777722025 | 21.67° C | 39% | 1024.4 hPa | 0 mm | - | 544 W/m² | - |
| 1777721724 | 21.67° C | 37% | 1024.6 hPa | 0 mm | - | 549 W/m² | - |
| 1777721423 | 21.11° C | 37% | 1024.5 hPa | 0 mm | - | 555 W/m² | - |
| 1777721122 | 21.67° C | 37% | 1024.6 hPa | 0 mm | - | 558 W/m² | - |
| 1777720819 | 21.67° C | 38% | 1024.7 hPa | 0 mm | - | 562 W/m² | - |
| 1777720518 | 21.67° C | 39% | 1024.7 hPa | 0 mm | - | 558 W/m² | - |
| 1777720217 | 21.11° C | 38% | 1024.8 hPa | 0 mm | - | 568 W/m² | - |
| 1777719935 | 21.11° C | 38% | 1024.7 hPa | 0 mm | - | 575 W/m² | - |
| 1777719633 | 21.11° C | 38% | 1024.8 hPa | 0 mm | - | 581 W/m² | - |
| 1777719333 | 21.11° C | 38% | 1024.9 hPa | 0 mm | - | 584 W/m² | - |
| 1777719031 | 21.11° C | 39% | 1025.1 hPa | 0 mm | - | 587 W/m² | - |
| 1777718729 | 20.56° C | 39% | 1025 hPa | 0 mm | - | 592 W/m² | - |
| 1777718428 | 20.56° C | 39% | 1025.1 hPa | 0 mm | - | 598 W/m² | - |
| 1777718127 | 21.11° C | 39% | 1025.2 hPa | 0 mm | - | 601 W/m² | - |
| 1777717825 | 21.11° C | 40% | 1025 hPa | 0 mm | - | 613 W/m² | - |
* Rain latest hour (hover to see other rain measurements)
** Current wind speed in m/s (hover to see current wind gust speed)